Snowfall_Accumulation
0.0 0.0 0.0 0.0 0.0 0.0 0.0 0.0 0.0 0.0 0.0 0.0 0.0 0.0 0.0 0.0 0.0 0.0 0.0 0.0 0.0 0.0 0.0 0.0 0.0 0.0 0.0 0.0 0.0 0.0 0.0 0.0 0.0 0.0 0.0 0.0 0.0 0.0 0.0 0.0 0.0 0.0 0.0 0.0 0.0 0.0 0.0 0.0 0.0
0.0 0.0 0.0 0.0 0.0 0.3 0.0 0.0 0.0 0.0 0.0 0.0 0.0 0.0 0.0 0.0 0.0 0.0 0.0 0.0 0.0 0.0 0.0 0.0 0.0 0.0 0.0 0.0 0.0 0.0 0.0 0.0 0.0 0.0 0.0 0.0 0.0 0.0 0.0 0.0 0.0 0.0 0.0 0.0 0.0 0.0 0.0 0.0 0.0
0.0 0.0 0.0 0.0 0.1 0.4 0.0 0.0 0.0 0.0 0.0 0.0 0.0 0.0 0.0 0.0 0.0 0.0 0.0 0.0 0.0 0.0 0.0 0.0 0.0 0.0 0.0 0.0 0.0 0.0 0.0 0.0 0.0 0.0 0.0 0.0 0.0 0.0 0.0 0.0 0.0 0.0 0.0 0.0 0.0 0.0 0.0 0.0 0.0
0.0 0.0 0.0 0.0 0.2 0.0 0.0 0.0 0.0 0.0 0.0 0.0 0.0 0.0 0.0 0.0 0.0 0.0 0.0 0.0 0.0 0.0 0.0 0.0 0.0 0.0 0.0 0.0 0.0 0.0 0.0 0.0 0.0 0.0 0.0 0.0 0.0 0.0 0.0 0.0 0.0 0.0 0.0 0.0 0.0 0.0 0.0 0.0 0.0
0.0 0.0 0.0 0.1 0.1 0.0 0.0 0.0 0.0 0.0 0.0 0.0 0.0 0.0 0.0 0.0 0.0 0.0 0.0 0.0 0.0 0.0 0.0 0.0 0.0 0.0 0.0 0.0 0.0 0.0 0.0 0.0 0.0 0.0 0.0 0.0 0.0 0.0 0.0 0.0 0.0 0.0 0.0 0.0 0.0 0.0 0.0 0.0 0.0
0.0 0.0 0.2 0.8 0.1 0.0 0.0 0.0 0.0 0.0 0.0 0.0 0.0 0.0 0.0 0.0 0.0 0.0 0.0 0.0 0.0 0.0 0.0 0.0 0.0 0.0 0.0 0.0 0.0 0.0 0.0 0.0 0.0 0.0 0.0 0.0 0.0 0.0 0.0 0.0 0.0 0.0 0.0 0.0 0.0 0.0 0.0 0.0 0.0
0.0 0.0 0.3 0.4 0.1 0.0 0.0 0.0 0.0 0.0 0.0 0.0 0.0 0.0 0.0 0.0 0.0 0.0 0.0 0.0 0.0 0.0 0.0 0.0 0.0 0.0 0.0 0.0 0.0 0.0 0.0 0.0 0.0 0.0 0.0 0.0 0.0 0.0 0.0 0.0 0.0 0.0 0.0 0.0 0.0 0.0 0.0 0.0 0.0
0.0 0.0 0.3 0.2 0.2 0.0 0.0 0.0 0.0 0.0 0.0 0.0 0.0 0.0 0.0 0.0 0.0 0.0 0.0 0.0 0.0 0.0 0.0 0.0 0.0 0.0 0.0 0.0 0.0 0.0 0.0 0.0 0.0 0.0 0.0 0.0 0.0 0.0 0.0 0.0 0.0 0.0 0.0 0.0 0.0 0.0 0.0 0.0 0.0
0.0 0.1 1.0 0.3 0.1 0.0 0.0 0.0 0.0 0.0 0.0 0.0 0.0 0.0 0.0 0.0 0.0 0.0 0.0 0.0 0.0 0.0 0.0 0.0 0.0 0.0 0.0 0.0 0.0 0.0 0.0 0.0 0.0 0.0 0.0 0.0 0.0 0.0 0.0 0.0 0.0 0.0 0.0 0.0 0.0 0.0 0.0 0.0 0.0
0.0 0.8 0.3 0.0 0.0 0.1 0.1 0.1 0.1 0.0 0.0 0.0 0.0 0.0 0.0 0.0 0.0 0.0 0.0 0.0 0.0 0.0 0.0 0.0 0.0 0.0 0.0 0.0 0.0 0.0 0.0 0.0 0.0 0.0 0.0 0.0 0.0 0.0 0.0 0.0 0.0 0.0 0.0 0.0 0.0 0.0 0.0 0.0 0.0
0.0 0.2 0.0 0.0 0.0 0.0 0.1 0.1 0.1 0.1 0.1 0.0 0.0 0.0 0.0 0.0 0.0 0.0 0.0 0.0 0.0 0.0 0.0 0.0 0.0 0.0 0.0 0.0 0.0 0.0 0.0 0.0 0.0 0.0 0.0 0.0 0.0 0.0 0.0 0.0 0.0 0.0 0.0 0.0 0.0 0.0 0.0 0.0 0.0
0.2 0.0 0.0 0.1 0.0 0.1 0.2 0.1 0.1 0.2 0.3 0.1 0.0 0.0 0.0 0.0 0.0 0.0 0.0 0.0 0.0 0.0 0.0 0.0 0.0 0.0 0.0 0.0 0.0 0.0 0.0 0.0 0.0 0.0 0.0 0.0 0.0 0.0 0.0 0.0 0.0 0.0 0.0 0.0 0.0 0.0 0.0 0.0 0.0
0.2 0.1 0.0 0.0 0.0 0.1 0.2 0.2 0.2 0.3 0.2 0.2 0.1 0.0 0.0 0.0 0.0 0.0 0.0 0.0 0.0 0.0 0.0 0.0 0.0 0.0 0.0 0.0 0.0 0.0 0.0 0.0 0.0 0.0 0.0 0.0 0.0 0.0 0.0 0.0 0.0 0.0 0.0 0.0 0.0 0.0 0.0 0.0 0.0
0.1 0.0 0.0 0.0 0.0 0.0 0.2 0.4 0.3 0.4 0.2 0.1 0.1 0.1 0.1 0.0 0.0 0.0 0.0 0.0 0.0 0.0 0.0 0.1 0.0 0.0 0.0 0.0 0.0 0.0 0.0 0.0 0.0 0.0 0.0 0.0 0.0 0.0 0.0 0.0 0.0 0.0 0.0 0.0 0.0 0.0 0.0 0.0 0.0
0.1 0.1 0.0 0.0 0.0 0.0 0.0 0.4 0.5 0.5 0.2 0.1 0.2 0.1 0.1 0.1 0.1 0.0 0.0 0.0 0.0 0.1 0.0 0.0 0.1 0.1 0.1 0.0 0.1 0.1 0.0 0.0 0.0 0.0 0.0 0.0 0.0 0.0 0.0 0.0 0.0 0.0 0.0 0.0 0.0 0.0 0.0 0.0 0.0
0.3 0.8 1.1 0.1 0.0 0.0 0.5 1.4 0.4 0.3 0.2 0.2 0.2 0.2 0.2 0.1 0.1 0.1 0.1 0.1 0.0 0.0 0.0 0.0 0.1 0.1 0.1 0.1 0.1 0.1 0.1 0.0 0.0 0.0 0.0 0.0 0.0 0.0 0.0 0.0 0.0 0.0 0.0 0.0 0.0 0.0 0.0 0.0 0.0
4.0 5.3 3.4 1.0 0.1 0.1 0.5 0.9 0.4 0.3 0.3 0.3 0.3 0.2 0.2 0.2 0.2 0.1 0.1 0.2 0.1 0.1 0.1 0.1 0.1 0.1 0.1 0.1 0.1 0.1 0.1 0.1 0.1 0.0 0.0 0.0 0.0 0.0 0.0 0.0 0.0 0.0 0.0 0.0 0.0 0.0 0.0 0.0 0.0
5.1 3.8 2.2 1.7 0.4 0.4 0.9 0.8 0.4 0.3 0.3 0.5 0.4 0.3 0.3 0.2 0.3 0.2 0.2 0.2 0.2 0.2 0.1 0.1 0.1 0.1 0.1 0.1 0.1 0.1 0.1 0.1 0.1 0.1 0.0 0.0 0.0 0.0 0.0 0.0 0.0 0.0 0.0 0.0 0.0 0.0 0.0 0.0 0.0
2.7 2.7 2.5 1.1 0.5 0.9 1.1 1.2 0.6 0.3 0.3 0.3 0.4 0.5 0.5 0.4 0.3 0.2 0.2 0.2 0.2 0.2 0.2 0.1 0.1 0.1 0.1 0.2 0.1 0.1 0.1 0.1 0.1 0.1 0.1 0.1 0.1 0.0 0.1 0.0 0.0 0.0 0.0 0.0 0.0 0.0 0.0 0.0 0.0
2.9 3.5 2.7 1.3 0.5 1.4 1.6 1.5 0.6 0.4 0.5 0.4 0.3 0.3 0.3 0.3 0.3 0.2 0.1 0.1 0.2 0.1 0.2 0.2 0.2 0.2 0.2 0.2 0.3 0.1 0.2 0.1 0.1 0.1 0.1 0.2 0.2 0.1 0.1 0.1 0.1 0.0 0.0 0.0 0.0 0.0 0.0 0.0 0.0
3.5 3.0 2.7 3.1 1.8 1.1 2.6 2.6 1.5 0.8 0.5 0.4 0.3 0.3 0.2 0.3 0.3 0.3 0.2 0.1 0.2 0.3 0.2 0.3 0.3 0.3 0.2 0.2 0.2 0.3 0.3 0.2 0.1 0.1 0.2 0.2 0.2 0.2 0.2 0.1 0.1 0.1 0.1 0.1 0.0 0.0 0.1 0.0 0.0
4.6 1.1 1.6 2.8 4.8 6.8 5.1 10.5 3.3 1.6 1.0 0.7 0.6 0.5 0.4 0.3 0.4 0.2 0.1 0.1 0.1 0.2 0.3 0.3 0.3 0.4 0.4 0.2 0.3 0.4 0.5 0.4 0.2 0.2 0.2 0.2 0.3 0.3 0.3 0.1 0.1 0.1 0.2 0.1 0.1 0.0 0.1 0.1 0.0
3.0 0.7 1.6 2.7 6.1 8.9 4.6 9.4 5.7 2.3 1.8 1.7 1.2 0.8 0.5 0.5 0.5 0.5 0.2 0.1 0.1 0.1 0.2 0.2 0.2 0.3 0.4 0.3 0.4 0.5 0.5 0.5 0.5 0.4 0.3 0.2 0.3 0.4 0.3 0.4 0.2 0.1 0.2 0.1 0.1 0.1 0.1 0.1 0.1
1.2 1.5 2.0 3.2 8.5 14.8 6.1 8.3 7.5 5.2 3.7 1.9 1.3 1.0 0.6 0.8 0.4 0.4 0.2 0.2 0.1 0.1 0.1 0.2 0.2 0.2 0.3 0.3 0.3 0.4 0.5 0.5 0.5 0.5 0.5 0.2 0.2 0.2 0.4 0.4 0.1 0.2 0.2 0.2 0.1 0.2 0.2 0.2 0.1
3.3 11.0 21.4 21.4 20.1 11.5 4.6 6.9 8.5 3.5 2.4 2.2 1.9 1.4 1.0 1.1 0.7 0.5 0.4 0.2 0.2 0.1 0.1 0.2 0.2 0.2 0.3 0.3 0.2 0.3 0.3 0.4 0.5 0.6 0.7 0.6 0.3 0.3 0.3 0.4 0.5 0.3 0.3 0.2 0.2 0.3 0.2 0.2 0.2
4.1 7.9 16.4 15.5 10.7 6.9 5.6 7.4 7.8 3.0 2.4 2.1 1.7 1.5 1.2 1.1 1.2 0.9 0.6 0.3 0.2 0.2 0.1 0.1 0.2 0.2 0.2 0.2 0.3 0.2 0.2 0.3 0.4 0.5 0.7 0.8 0.5 0.4 0.3 0.3 0.3 0.4 0.3 0.3 0.2 0.2 0.2 0.3 0.3
5.8 7.7 6.3 12.2 9.0 7.9 7.6 6.8 4.8 1.9 1.9 1.9 1.6 1.3 1.2 1.3 1.1 1.3 1.1 0.7 0.3 0.4 0.3 0.2 0.2 0.2 0.2 0.2 0.2 0.3 0.3 0.2 0.3 0.4 0.6 0.8 0.8 0.5 0.4 0.4 0.4 0.3 0.5 0.2 0.2 0.4 0.2 0.3 0.3
2.9 5.0 10.2 16.7 14.6 10.5 7.1 6.5 8.0 4.9 3.6 2.5 2.1 1.7 1.4 1.3 1.3 1.2 1.2 1.0 0.6 0.6 0.5 0.3 0.2 0.2 0.2 0.2 0.2 0.2 0.3 0.2 0.2 0.3 0.3 0.8 0.4 0.5 0.5 0.5 0.6 0.5 0.4 0.2 0.3 0.2 0.3 0.3 0.4
4.9 7.8 10.7 12.8 11.5 11.3 8.7 8.7 7.2 5.4 3.6 2.9 2.2 2.0 1.8 1.5 1.6 1.5 1.2 1.2 1.0 0.7 0.8 0.7 0.3 0.1 0.1 0.2 0.2 0.2 0.2 0.2 0.2 0.2 0.2 0.4 0.4 0.4 0.4 0.4 0.5 0.5 0.5 0.3 0.3 0.2 0.2 0.2 0.2
3.2 6.3 9.2 14.5 10.7 8.5 8.9 9.1 4.6 3.8 3.2 3.1 2.7 2.6 2.4 2.1 1.8 1.7 1.5 1.2 1.1 1.0 0.9 0.9 0.8 0.4 0.4 0.2 0.2 0.2 0.2 0.4 0.3 0.2 0.3 0.3 0.3 0.3 0.4 0.4 0.4 0.5 0.5 0.5 0.3 0.4 0.2 0.2 0.2